Regional Weather Roundup
Issued by NWS Charleston, SC

Current Version | Previous Version | Graphics & Text | Print | Product List | Glossary On
Versions: 1 2 3 4 5 6 7 8 9 10 11 12 13 14 15 16 17 18 19 20 21 22 23 24 25 26 27 28 29 30 31 32 33 34 35 36 37 38 39 40 41 42 43 44 45 46 47 48 49 50
000 ASUS42 KCHS 300912 RWRCHS REGIONAL WEATHER ROUNDUP NATIONAL WEATHER SERVICE CHARLESTON SC 500 AM EDT SAT MAY 30 2015 NOTE: "FAIR" INDICATES FEW OR NO CLOUDS BELOW 12,000 FEET WITH NO SIGNIFICANT WEATHER AND/OR OBSTRUCTIONS TO VISIBILITY. NOT ALL STATIONS ARE QUALITY CONTROLLED BY THE NATIONAL WEATHER SERVICE. USE DATA WITH CAUTION...ESPECIALLY DEWPOINT OBSERVATIONS. SCZ027-030-031-034>040-042>050-301000- ...SOUTHEAST SOUTH CAROLINA... CITY SKY/WX TMP DP RH WIND PRES REMARKS N CHARLESTON PTCLDY 67 66 97 NE3 30.14R WATERFRONT PAR N/A 76 71 84 E9 30.10S MOUNT PLEASANT FAIR 66 66 100 CALM 30.14R FOG JOHNS ISLAND PTSUNNY 72 70 94 CALM 30.14R PINOPOLIS NOT AVBL MONCKS CORNER FAIR 66 63 88 CALM 30.15R FOG SUMMERVILLE CLOUDY 64 64 100 CALM 30.16R BEAUFORT MCAS CLEAR 69 68 96 N6 30.13S BEAUFORT ARPT FAIR 72 72 100 CALM 30.13R HILTON HEAD IS PTCLDY 75 72 88 NE3 30.13R WALTERBORO MOSUNNY 63 63 100 CALM 30.15S FOG ALLENDALE FAIR 68 66 94 CALM 30.14S ...SOUTHERN MIDLANDS AND PEE DEE... CITY SKY/WX TMP DP RH WIND PRES REMARKS GEORGETOWN NOT AVBL KINGSTREE NOT AVBL ORANGEBURG CLEAR 67 64 90 CALM 30.16R BARNWELL FAIR 64 64 100 CALM 30.16S AIKEN FAIR 63 61 94 CALM 30.19S MANNING CLOUDY 63 61 94 CALM 30.16R FOG COLUMBIA PTCLDY 67 62 84 CALM 30.16R SUMTER CLEAR 64 63 95 NE3 30.15R FLORENCE PTCLDY 66 65 96 NE3 30.17R MYRTLE BEACH CLEAR 73 64 73 SE8 30.17S N MYRTLE BEACH PTCLDY 75 67 76 SE5 30.15S $$ GAZ063-065-086>088-099>101-113>116-118-119-134>141-150-301000- ...SOUTHEAST GEORGIA... CITY SKY/WX TMP DP RH WIND PRES REMARKS SAVANNAH ARPT PTCLDY 68 67 96 N3 30.13R HUNTER AAF PTCLDY 73 71 94 N1 30.10R FORT STEWART CLEAR 66 65 94 CALM 30.10S FOG STATESBORO PTCLDY 65 32 29 CALM 30.14S SYLVANIA SUNNY 66 66 99 CALM 30.15S CLAXTON FAIR 63 63 100 CALM 30.13S ...CSRA...CENTRAL AND FAR SOUTHEAST GEORGIA... CITY SKY/WX TMP DP RH WIND PRES REMARKS THOMSON CLEAR 65 65 100 CALM 30.20R AUGUSTA-BUSH FOG 64 63 96 CALM 30.15R VSB 1/2 AUGUSTA-DANIEL CLEAR 71 65 81 E5 30.16S SWAINSBORO FAIR N/A N/A N/A E5 30.14S VIDALIA CLEAR 68 68 100 NE5 30.13S EASTMAN N/A 65 65 100 CALM 30.15S FOG HAZLEHURST FAIR 71 70 99 CALM 30.11F ALMA PTCLDY 66 65 96 CALM 30.11S WAYCROSS CLEAR 67 67 99 CALM 30.11R JESUP FAIR 70 68 94 CALM 30.12R BAXLEY FAIR 70 68 94 CALM 30.12S FOG BRUNSWICK CLEAR 66 64 94 CALM 30.11S SAINT SIMONS NOT AVBL $$ SCZ027-028-034-036>038-045-046-048>050-GAZ119-141-301000- ...LAKE AND SUPPLEMENTAL COASTAL OBSERVATIONS... STATION/POSITION TIME TEMP WIND PRES WAVE SWELL AIR SEA DIR/SP/G HT/PER HT/PER/DIR (UTC) (F) (DEG/KT/KT) (MB) (FT/S) (FT/S/D) UPR LAKE MARION NOT AVBL WINYAH BAY NOT AVBL LAKE MURRAY 0800 73 180/ 5/ 8 1020.7S ACE BASIN NERRS NOT AVBL FORT PULASKI 0800 77 80 70/ 12/ 14 1020.1F SAPELO ISLAND 0800 69 20/ 3 1019.0F $$ ANZ835-935-AMZ111-154-330-350-352-354-370-450-454-472-301000- ...C-MAN AND BUOY OBSERVATIONS... STATION/POSITION TIME TEMP WIND PRES WAVE SWELL AIR SEA DIR/SP/G HT/PER HT/PER/DIR (UTC) (F) (DEG/KT/KT) (MB) (FT/S) (FT/S/D) BUOY 41004 0850 77 79 90/ 14/ 16 1019.4S 5/ 8 3/ 8 BUOY 41008 0850 76 78 40/ 6/ 6 1019.4R 3/ 9 3/110/ 9 FOLLY BEACH CMAN 0900 76 80/ 11/ 13 1020.5R CAPERS NEARSHORE NOT AVBL FRIPP NEARSHORE 0800 77 90/ 10/ 12 1019.5F STATION/POSITION TIME TEMP WIND PRES WAVE SWELL AIR SEA DIR/SP/G HT/PER HT/PER/DIR (UTC) (F) (DEG/KT/KT) (MB) (FT/S) (FT/S/D) 5E ST. MARYS GA 0821 79 N/A 3/ 9 FRYING PAN BUOY 0850 77 75 130/ 12/ 14 1021.4F 4/ 7 3/120/ 7 BUOY 41025 0850 75 79 120/ 6/ 8 1022.4R 4/ 9 3/ 90/ 9 CAPE LOOKOUT NC 0900 74 120/ 3/ 3 1022.0R BUOY 41002 0850 74 74 70/ 8/ 10 1020.4F 7/ 9 7/ 80/ 9 BUOY 41010 0820 77 79 80/ 14/ 16 1017.6F ST AUGUSTINE FL 0900 76 79 90/ 8/ 9 1019.1R $$

USA.gov is the U.S. government's official web portal to all federal, state and local government web resources and services.